星链-2021 (STARLINK-2021 )

导读 | 星芒AI

STARLINK-2021 是 SpaceX 公司 Starlink 项目中的一次卫星发射任务,于2021年执行,旨在为全球提供高速互联网服务。此次任务成功部署了多颗低轨卫星,进一步扩展了 Starlink 卫星网络的覆盖范围和容量。这些卫星采用先进通信技术,具备高带宽和低延迟特性,支持偏远地区互联网接入。该任务体现了 SpaceX 在商业航天和全球通信基础设施建设方面的领先地位。

基本信息
目录编号:
47604
目录名称:
STARLINK-2021
国际标识:
2021-009BJ
轨道中心:
EARTH
卫星名称:
星链-2021
卫星全名:
星链-2021 (STARLINK-2021 )
卫星状态:
在轨 (已飞行1776 天)
发射日期:
2021-02-04 UTC
国别 :
美国 (US)
星等 :
--
轨道信息
数据来源 国际轨道数据
星历时间: 2025-12-16T02:59:03+0800
21小时前
查看轨道信息
半长轴: 6833.253km
偏心率: 0.0008415
轨道倾角: 53.054°
近地点辐角 12.746°
升交点赤经 19.065°
平近点角 347.375°
近地点: 449.367km
远地点: 460.869km
周期: 93.692分钟
每日圈数: 15.369566
详细信息
固有亮度:
5
最大亮度:
2.5
卫星平台:
Starlink V1.0
覆盖范围:
全球
运营商:
太空探索技术公司
运营商所在国:
美国
制造商(研发单位):
太空探索技术公司
制造商所在国:
美国
使用方式:
暂无
卫星简介
星链(Starlink)计划是由太空探索技术公司(SpaceX)提出的一个巨型低轨卫星互联网星座项目,计划在2019年至2024年间在太空搭建由约1.2万颗卫星组成的“星链”网络,其中1584颗将部署在地球上空550千米处的近地轨道,并从2020年开始工作。该卫星仍在工作。
2D轨道图
3D轨道图
轨道高度分析图
轨道倾角分析图
轨道综合分析图
查看轨道综合分析图